Location: Newark
(48.1500°N, 2.9667°W)
Time: 14:46:05
(UTC+00:00)

Altair - Pass Details

Date: 30 January 2020
Orbit: 1502 x 1682 km, 47.2° (Epoch: 24 February)

Event Time Altitude Azimuth Distance (km) Brightness Sun altitude
Rises 13:56:30 0° 291° (WNW) 4,940 10.2 21.1°
Reaches altitude 10° 13:59:58 10° 284° (WNW) 3,949 9.9 20.8°
Maximum altitude 14:08:57 38° 221° (SW) 2,365 10.1 20.2°
Drops below altitude 10° 14:17:45 10° 159° (SSE) 3,865 10.3 19.5°
Sets 14:21:07 0° 151° (SSE) 4,825 10.6 19.2°
